Location: Koszewko
(53.2876°N, 14.9061°E)
Time: 23:23:56
(UTC+00:00)

USA 307 - Pass Details

Date: 03 March 2021
Orbit: 567 x 577 km, 54.0° (Epoch: 10 April)

Event Time Altitude Azimuth Distance (km) Brightness Sun altitude
Rises 18:17:07 0° 269° (W) 2,788 8.2 -14.9°
Reaches altitude 10° 18:19:23 10° 271° (W) 1,887 6.9 -15.2°
Maximum altitude 18:23:41 80° 358° (N) 589 2.9 -15.9°
Enters shadow 18:25:45 30° 83° (E) 1,044 3.7 -16.2°
